Regional Weather Roundup
Issued by NWS

Home | Current Version | Previous Version | Text Only | Print | Product List | Glossary On
Versions: 1 2 3 4 5 6 7 8 9 10 11 12 13 14 15 16 17 18 19 20 21 22 23 24 25 26 27 28 29 30 31 32 33 34 35 36 37 38 39 40 41 42 43 44 45 46 47 48 49 50
000
ASUS45 KABQ 231710
RWRNM
NEW MEXICO REGIONAL WEATHER ROUNDUP
NATIONAL WEATHER SERVICE ALBUQUERQUE NM
1100 AM MDT SUN APR 23 2017

NOTE: "FAIR" MEANS FEW OR NO CLOUDS BELOW 12,000 FEET AGL WITH NO
       SIGNIFICANT WEATHER OR OBSTRUCTIONS TO VISION.

      THIS PRODUCT IS RELEASED AS TWO VERSIONS.  ONE VERSION NEAR
      THE TOP OF THE HOUR CONTAINING PRELIMINARY DATA FROM ALBUQUERQUE
      AND OTHER STATIONS.  A FINAL VERSION WITH ADDITIONAL DATA IS
      ISSUED ABOUT 10 MINUTES AFTER THE HOUR.

NMZ501-503-504-510>518-231800-
NORTHWEST PLATEAU/NORTHCENTRAL MOUNTAINS

CITY           SKY/WX    TMP DP  RH WIND       PRES   REMARKS
FARMINGTON     FAIR      61  30  31 E12       30.08F
LOS ALAMOS     FAIR      52  30  42 S10G18    30.21F
SANTA FE       FAIR      55  32  41 NW6       30.19F
TAOS             N/A     48  28  46 W7        30.22F
ANGEL FIRE     FAIR      47  31  53 W5        30.22F

$$
NMZ402-403-502-505>509-231800-
WESTCENTRAL MOUNTAINS/SOUTHWEST MOUNTAINS

CITY           SKY/WX    TMP DP  RH WIND       PRES   REMARKS
GALLUP         FAIR      68  25  19 SW14G23   30.11F
GRANTS         FAIR      57  29  34 SE18G26   30.18F
SILVER CITY    FAIR      60  33  35 SE17      30.21F

$$
NMZ407-409-411-412-231800-
SOUTHERN DESERTS

CITY           SKY/WX    TMP DP  RH WIND       PRES   REMARKS
DEMING         FAIR      66  34  30 SE14G23   30.17F
LAS CRUCES     FAIR      65  32  29 SE9G16    30.20F
HOLLOMAN AFB   FAIR      63  33  32 SE6       30.22F
ALAMOGORDO     FAIR      63  32  31 SW3       30.20F
T OR C         FAIR      63  33  32 S8        30.18F

$$
NMZ519>523-231800-
CENTRAL VALLEYS/CENTRAL HIGHLANDS

CITY           SKY/WX    TMP DP  RH WIND       PRES   REMARKS
ALBUQUERQUE    FAIR      57  32  38 SW14      30.20F
DOUBLE EAGLE   MOSUNNY   55  32  41 SE9       30.21F
MORIARTY ARPT  FAIR      57  34  40 S8        30.22F
CLINES CORNERS FAIR      54  31  41 SW20      30.22F
BELEN          FAIR      61  31  32 S14       30.18F
SOCORRO        FAIR      64  32  29 S20G26    30.17F

$$
NMZ524>526-539-540-231800-
SOUTHCENTRAL MOUNTAINS

CITY           SKY/WX    TMP DP  RH WIND       PRES   REMARKS
RUIDOSO        FAIR      55  32  41 E7        30.26F

$$
NMZ527>531-231800-
NORTHEAST HIGHLANDS/NORTHEAST PLAINS

CITY           SKY/WX    TMP DP  RH WIND       PRES   REMARKS
LAS VEGAS      FAIR      55  32  41 S26G37    30.15F
RATON          FAIR      56  31  38 S18G31    30.11F
CLAYTON        FAIR      60  33  36 S28G38    30.11F

$$
NMZ532>537-231800-
EASTCENTRAL PLAINS

CITY           SKY/WX    TMP DP  RH WIND       PRES   REMARKS
SANTA ROSA     FAIR      62  33  33 S17G24    30.16F
TUCUMCARI      FAIR      63  34  33 SW22G30   30.15F
CANNON AFB     FAIR      59  33  37 SW16      30.21F
CLOVIS AIRPORT FAIR      59  34  38 S16       30.22F

$$
NMZ028-029-538-231800-
SOUTHEAST PLAINS

CITY           SKY/WX    TMP DP  RH WIND       PRES   REMARKS
ROSWELL        FAIR      62  34  35 S16G25      N/A
ARTESIA        FAIR      61  36  39 S16       30.23F
CARLSBAD       FAIR      62  37  39 SE13G22   30.22F
HOBBS          SUNNY     59  32  36 S7        30.26F


$$



USA.gov is the U.S. government's official web portal to all federal, state and local government web resources and services.